Location: Riverside Cemetery
(38.3047°N, 99.7773°W)
Time: 05:57:03
(UTC+00:00)

Milstar 3 Cent rocket - Pass Details

Date: 19 September 2020
Orbit: 708 x 5145 km, 28.3° (Epoch: 18 October)

Event Time Altitude Azimuth Distance (km) Brightness Sun altitude
Rises 03:00:07 0° 241° (WSW) 3,946 6.1 -27.1°
Reaches altitude 10° 03:03:43 10° 228° (SW) 2,584 4.9 -27.7°
Enters shadow 03:06:07 19° 207° (SSW) 1,826 3.9 -28.2°
